DW0108 Weather Reports


Display with metric or nautical units.
time (UTC)temp
F
wind
direction
speed
MPH
gust
MPH
rain 1hr
in
rain 24hr
in
rain mn
in
humidity
%
barometer
mb
20210413163812 65 85 5.0 11.0 0.00 0.00 1.06 53 1069.0
20210413163138 64 128 5.0 11.0 0.00 0.00 1.04 50 1069.0
20210413162232 64 42 4.0 10.0 0.00 0.00 1.02 50 1069.0
20210413160822 63 75 3.0 8.0 0.00 0.00 9.98 52 1069.0
20210413153811 61 51 6.0 9.0 0.00 0.00 9.32 52 1069.0
20210413153051 61 75 6.0 10.0 0.00 0.00 9.10 53 1069.0
20210413151912 61 26 5.0 9.0 0.00 0.00 8.88 54 1069.0
20210413150825 60 44 7.0 13.0 0.00 0.00 8.66 54 1069.0
20210413150454 60 89 8.0 16.0 0.00 0.00 8.44 54 1069.0
20210413145106 60 75 6.0 14.0 0.00 0.00 8.22 54 1069.0
20210413143853 60 107 5.0 11.0 0.00 0.00 8.00 55 1069.0
20210413143111 59 43 4.0 11.0 0.00 0.00 7.78 58 1069.0
20210413141826 59 53 5.0 10.0 0.00 0.00 7.55 59 1069.0
20210413140831 58 50 6.0 10.0 0.00 0.00 7.34 61 1069.0
20210413140116 58 113 5.0 11.0 0.00 0.00 7.12 63 1069.0
20210413133826 57 57 4.0 11.0 0.00 0.00 6.68 65 1069.0
20210413133106 57 90 4.0 9.0 0.00 0.00 6.45 70 1069.0
20210413131907 56 148 3.0 6.0 0.00 0.00 6.24 72 1069.0
20210413125418 55 22 3.0 6.0 0.00 0.00 5.58 76 1069.0
20210413123849 54 54 3.0 7.0 0.00 0.00 5.36 79 1069.0
20210413113850 54 235 1.0 3.0 0.00 0.00 4.04 83 1069.0
20210413112143 55 65 3.0 5.0 0.00 0.00 3.60 82 1069.0
20210413110830 55 164 4.0 8.0 0.00 0.00 3.37 83 1069.0
20210413105354 55 143 1.0 4.0 0.00 0.00 2.95 84 1069.0
20210413103911 56 305 1.0 5.0 0.00 0.00 2.75 84 1069.0
20210413103200 56 175 2.0 5.0 0.00 0.00 2.55 84 1069.0
20210413102104 56 221 3.0 5.0 0.00 0.00 2.38 84 1069.0
20210413100849 56 141 4.0 6.0 0.00 0.00 2.22 85 1069.0
20210413094904 56 306 3.0 6.0 0.00 0.00 1.90 86 1069.0
20210413093826 56 168 4.0 8.0 0.00 0.00 1.74 86 1069.0
20210413092902 56 198 0.0 2.0 0.00 0.00 1.58 86 1069.0
20210413085536 57 158 0.0 3.0 0.00 0.00 9.68 84 1069.0
20210413082756 57 121 4.0 9.0 0.00 0.00 6.09 82 1069.0
20210413075459 58 138 1.0 4.0 0.00 0.00 3.36 79 1069.0
20210413073810 59 178 1.0 6.0 0.00 0.00 2.62 77 1069.0
20210413070848 60 102 4.0 9.0 0.00 0.00 1.46 71 1069.0
20210413064908 60 17 2.0 5.0 0.00 0.00 0.87 73 1069.0
20210413060827 62 52 6.0 11.0 0.00 0.00 0.14 66 1069.0
20210413053840 67 62 3.0 8.0 0.00 0.00 0.00 49 1069.0
20210413052047 67 90 6.0 13.0 0.00 0.00 0.00 45 1069.0
20210413050241 68 128 5.0 11.0 0.00 0.00 0.00 45 1069.0
20210413042904 69 31 4.0 7.0 0.00 0.00 0.00 46 1069.0
20210413040840 69 122 1.0 6.0 0.00 0.00 0.00 46 1069.0
20210413040112 69 142 1.0 5.0 0.00 0.00 0.00 46 1069.0
20210413035035 70 110 2.0 4.0 0.00 0.00 0.00 45 1069.0
20210413033809 70 96 3.0 7.0 0.00 0.00 0.00 45 1069.0
20210413031900 71 49 2.0 5.0 0.00 0.00 0.00 45 1069.0
20210413030051 71 109 3.0 6.0 0.00 0.00 0.00 44 1069.0
20210413023839 72 111 3.0 7.0 0.00 0.00 0.00 43 1069.0
20210413022933 72 181 3.0 7.0 0.00 0.00 0.00 43 1069.0
20210413021944 73 210 3.0 6.0 0.00 0.00 0.00 43 1069.0
20210413020839 73 241 3.0 6.0 0.00 0.00 0.00 43 1069.0
20210413011905 75 125 4.0 6.0 0.00 0.00 0.00 42 1069.0
20210413010838 76 115 4.0 10.0 0.00 0.00 0.00 41 1069.0
20210413005118 78 278 3.0 9.0 0.00 0.00 0.00 44 1069.0
20210413003818 79 83 2.0 7.0 0.00 0.00 0.00 48 1069.0
20210413002028 80 102 3.0 5.0 0.00 0.00 0.00 47 1069.0
20210413000816 80 18 2.0 5.0 0.00 0.00 0.00 48 1069.0
20210412235116 81 15 3.0 6.0 0.00 0.00 0.00 47 1069.0
20210412231844 86 107 0.0 0.0 0.00 0.00 0.00 44 1069.0
20210412230844 86 107 0.0 0.0 0.00 0.00 0.00 44 1069.0
20210412225106 87 131 0.0 1.0 0.00 0.00 0.00 43 1069.0
20210412223823 87 229 0.0 4.0 0.00 0.00 0.00 41 1069.0
20210412223117 87 237 0.0 3.0 0.00 0.00 0.00 41 1069.0
20210412221855 87 271 0.0 4.0 0.00 0.00 0.00 39 1069.0
20210412220907 87 234 0.0 4.0 0.00 0.00 0.00 41 1069.0
20210412214917 87 217 1.0 4.0 0.00 0.00 0.00 41 1069.0
20210412212922 87 245 2.0 5.0 0.00 0.00 0.00 41 1069.0
20210412211930 86 241 1.0 6.0 0.00 0.00 0.00 41 1069.0
20210412205052 84 196 3.0 9.0 0.00 0.00 0.00 47 1069.0
20210412203013 84 184 5.0 11.0 0.00 0.00 0.00 47 1069.0
20210412195242 84 188 6.0 12.0 0.00 0.00 0.00 48 1069.0
20210412193816 84 199 5.0 10.0 0.00 0.00 0.00 46 1069.0
20210412191957 83 190 4.0 10.0 0.00 0.00 0.00 49 1069.0
20210412190840 82 193 5.0 9.0 0.00 0.00 0.00 49 1069.0
20210412190232 82 188 5.0 10.0 0.00 0.00 0.00 49 1069.0
20210412184928 83 212 4.0 6.0 0.00 0.00 0.00 48 1069.0
20210412183129 82 195 4.0 9.0 0.00 0.00 0.00 49 1069.0
20210412180823 81 198 7.0 11.0 0.00 0.00 0.00 52 1069.0
20210412180233 81 189 5.0 10.0 0.00 0.00 0.00 53 1069.0
20210412175228 80 205 6.0 11.0 0.00 0.00 0.00 55 1069.0
20210412170135 75 186 6.0 12.0 0.00 0.00 0.00 61 1069.0